Preview of NWS' New Version of Forecast
This preview is not operational and should not be used for support decisions.

Regional Weather Roundup (RWR)

Issued by National Weather Service (NWS)

                            
000
ASUS44 KBMX 171910
RWRAL 
             
ALABAMA REGIONAL WEATHER ROUNDUP
NATIONAL WEATHER SERVICE BIRMINGHAM AL
100 PM CST MON DEC 17 2018

NOTE: "FAIR" INDICATES FEW OR NO CLOUDS BELOW 12,000 FEET
WITH NO SIGNIFICANT WEATHER AND/OR OBSTRUCTIONS TO VISIBILITY.

THE REMARK "TC" DENOTES TEMPERATURE IN DEGREES CELSIUS.

ALZ001>011-014-016>018-020-172000-
NORTH ALABAMA
  
CITY           SKY/WX    TMP DP  RH WIND       PRES   REMARKS
MUSCLE SHOALS  FAIR      56  44  64 NW3       30.21F                  
HUNTSVILLE     FAIR      54  42  64 W5        30.19F                  
DECATUR        FAIR      52  44  74 N3        30.20F                  
HALEYVILLE     NOT AVBL                                               
GADSDEN        FAIR      60  40  47 W9        30.17F                  
$$
 
ALZ012-013-022-023-030>036-040>044-172000-
WEST CENTRAL ALABAMA
  
CITY           SKY/WX    TMP DP  RH WIND       PRES   REMARKS
TUSCALOOSA     FAIR      56  46  69 SW6       30.21F                  
DEMOPOLIS      FAIR      57  48  72 CALM      30.22F                  
$$
 
ALZ015-024>026-033>036-041>044-172000-
CENTRAL ALABAMA
  
CITY           SKY/WX    TMP DP  RH WIND       PRES   REMARKS
BIRMINGHAM     FAIR      59  42  53 NW6       30.21F                  
MONTGOMERY     FAIR      62  45  53 NW5       30.18F                  
SHELBY CO ARPT FAIR      59  42  53 CALM      30.18F                  
MAXWELL AFB    FAIR      62  44  52 W6        30.17                   
GREENVILLE     FAIR      64  43  46 VRB6      30.17F                  
SELMA            N/A     57  48  72 SW8       30.20F                  
PRATTVILLE     FAIR      62  44  52 W5        30.17F                  
BESSEMER       FAIR      58  42  55 NW8       30.19F                  
TALLADEGA      FAIR      58  42  55 W3        30.18F                  
PELL CITY      CLEAR     61  39  44 VRB5      30.18F                  
MARION         FAIR      60  50  68 W9        30.20F                  
SYLACAUGA      PTSUNNY   61  44  54 N5        30.17F                  
$$
 
ALZ019-021-028-029-037-038-045>048-172000-
EAST CENTRAL ALABAMA
  
CITY           SKY/WX    TMP DP  RH WIND       PRES   REMARKS
ANNISTON       FAIR      61  38  42 VRB5      30.17F                  
ALEXANDER CITY FAIR      61  42  48 NW8       30.16F                  
AUBURN         FAIR      62  38  40 NW6       30.15F                  
$$
 
ALZ051>064-172000-
SOUTHWEST ALABAMA
  
CITY           SKY/WX    TMP DP  RH WIND       PRES   REMARKS
MOBILE         PTSUNNY   66  46  48 N10       30.21F                  
BROOKLEY FIELD FAIR      64  49  57 NE7       30.22F                  
EVERGREEN      FAIR      64  46  52 VRB5      30.19F                  
$$

ALZ049-050-065>069-172000-
SOUTHEAST ALABAMA
  
CITY           SKY/WX    TMP DP  RH WIND       PRES   REMARKS
DOTHAN         FAIR      65  41  41 NW7       30.18F                  
OZARK          FAIR      65  43  45 N6        30.15F                  
TROY           FAIR      64  41  42 N6        30.17F                  
EUFAULA        FAIR      67  41  38 VRB6      30.13F                  
$$